Other Public Products
Issued by NWS Grand Forks, ND

Home | Current Version | Previous Version | Graphics & Text | Print | Product List | Glossary On
Versions: 1 2 3 4 5 6 7 8 9 10 11 12 13 14 15 16 17 18 19 20 21 22 23 24 25 26 27 28 29 30 31 32 33 34 35 36 37 38 39 40 41 42 43 44 45 46 47 48 49 50
000
FPUS83 KFGF 022310
OPUFGF
PRAIRIE TO PINES WEATHER ROUNDUP
NATIONAL WEATHER SERVICE EASTERN NORTH DAKOTA/GRAND FORKS ND
600 PM CDT SUN AUG 02 2015

 **SATELLITE DATA USED TO AUGMENT SKY COVER AT AUTOMATED STATIONS**
 *****  WEATHER ACROSS EASTERN NORTH DAKOTA  *****

CITY           SKY/WX    TMP DP  RH WIND       PRES   REMARKS
GRAND FORKS    MOSUNNY   78  47  33 NW20G25   29.81F
GRAND FORKS AF MOSUNNY   76  48  37 NW16G24   29.83S
GRAND CITY NWS NOT AVBL
BUXTON         NOT AVBL
DEVILS LAKE    SUNNY     75  48  38 NW16G25   29.87S
FARGO          SUNNY     78  47  33 NW18G26   29.83S
WAHPETON ARPT  CLEAR     77  45  31 N18G25    29.84S
$$

 *****  WEATHER ACROSS CENTRAL AND WESTERN NORTH DAKOTA  *****

CITY           SKY/WX    TMP DP  RH WIND       PRES   REMARKS
JAMESTOWN      SUNNY     76  51  41 NW14G21   29.89R
BISMARCK       SUNNY     80  53  39 NW14G24   29.93S
MINOT          SUNNY     78  46  32 NW15G21   29.92F
MINOT AFB      SUNNY     82  46  28 NW13G22   29.91F
GARRISON         N/A     76  52  43 NW15      29.95S
WILLISTON      SUNNY     82  46  28 N10G20    29.98S
DICKINSON      SUNNY     81  45  28 N9        29.97S
HETTINGER      SUNNY     83  47  28 N9        29.99S
$$

 *****  OTHER OBSERVATIONS NORTHEAST NORTH DAKOTA  *****

CITY           SKY/WX    TMP DP  RH WIND       PRES   REMARKS
WALHALLA       FAIR      75  46  35 MISG      29.82S
LANGDON        FAIR      75  45  33 NW16G26   29.86S
CAVALIER       FAIR      75  46  35 NW13G20   29.81S
GRAFTON        FAIR      75  48  38 NW17G23   29.82S
CANDO          NOT AVBL
FORT TOTTEN      N/A     77  52  41 NW7       29.95S
ROLLA          FAIR      70  48  46 NW14G20   29.91S
RUGBY          NOT AVBL
 ***** THE ABOVE OBSERVATIONS ARE NON NWS ARE NOT QUALITY
        CONTROLLED AND MAY MIS-REPORT RAIN FOR SNOW...
$$

 *****  OTHER OBSERVATIONS SOUTHEAST NORTH DAKOTA *****

CITY           SKY/WX    TMP DP  RH WIND       PRES   REMARKS
COOPERSTOWN    NOT AVBL
VALLEY CITY    FAIR      75  46  35 N17       29.88S
OAKES            N/A     77  57  50 NW13      29.88S
GWINNER        FAIR      79  54  41 NW13      29.87S
SHEYENNE NWR     N/A     78  51  38 N9        29.95S
BUFFALO        NOT AVBL
WYNDMERE         N/A     79  54  41 NW12        N/A
 ***** THE ABOVE OBSERVATIONS ARE NON NWS ARE NOT QUALITY
       CONTROLLED AND MAY MIS-REPORT RAIN FOR SNOW...
$$

  *****  WEATHER ACROSS NORTHERN MINNESOTA  *****

CITY           SKY/WX    TMP DP  RH WIND       PRES   REMARKS
FLAG ISLAND    CLOUDY    70  48  46 NW23      29.73S
WARROAD        SUNNY     70  50  49 NW14G20   29.77R
ROSEAU         SUNNY     72  48  43 NW13G20   29.78S
HALLOCK        SUNNY     75  41  29 NW16G22   29.80S
THF RVR FALLS  MOSUNNY   73  45  35 NW15G23   29.82S
HALSTAD        NOT AVBL
FOSSTON        MOSUNNY   75  43  31 NW17G23   29.83S
BAUDETTE       CLOUDY    68  48  48 NW13      29.74S
WASKISH        PTSUNNY   72  52  49 W14G24    29.76S
CROOKSTON      SUNNY     75  46  35 N14       29.82F
$$
  *****  WEATHER ACROSS CENTRAL AND WEST MINNESOTA  *****

CITY           SKY/WX    TMP DP  RH WIND       PRES   REMARKS
BEMIDJI        MOSUNNY   71  45  38 NW23G30   29.80R
PARK RAPIDS    SUNNY     75  47  36 NW17G24   29.81R
WADENA         SUNNY     73  52  46 N16G22    29.81S
DETROIT LAKES  SUNNY     73  50  43 NW16G24   29.85R
MOORHEAD       SUNNY     75  52  43 NW14G21   29.84S
FERGUS FALLS   MOSUNNY   75  54  46 N16G22    29.82S
ELBOW LAKE     FAIR      74  56  51 NW12      29.83S
MORRIS MN      MOSUNNY   75  57  53 N12G18    29.83R
STAPLES        SUNNY     73  46  38 NW18      29.80S
WHEATON        NOT AVBL
$$
  *****  WEATHER ELSEWHERE ACROSS MINNESOTA  *****

CITY           SKY/WX    TMP DP  RH WIND       PRES   REMARKS
DULUTH         MOSUNNY   74  49  41 NW17G25   29.70R
INTRNTL FALLS  CLOUDY    69  44  40 NW16G25   29.72R
ELY            SUNNY     68  39  34 NW18G26   29.69S
CLOQUET        SUNNY     73  39  29 NW20G30   29.72R
BRAINERD       MOSUNNY   76  48  37 NW14G24   29.78R
HIBBING        MOSUNNY   70  43  37 NW14G25   29.73R
ALEXANDRIA     SUNNY     75  52  44 N17       29.84R
SAINT CLOUD    SUNNY     78  55  44 NW20G28   29.76R
MINNEAPOLIS    MOSUNNY   82  57  42 NW22G29   29.72R
$$

  *****  WEATHER ACROSS SOUTH DAKOTA  *****

CITY           SKY/WX    TMP DP  RH WIND       PRES   REMARKS
SIOUX FALLS    SUNNY     83  60  45 N9        29.85R
BROOKINGS      SUNNY     79  57  47 N10       29.88S
WATERTOWN      SUNNY     78  57  48 N13       29.88S
HURON          SUNNY     82  58  43 N13       29.87R
SISSETON         N/A     78  57  48 N15       29.84R
ABERDEEN       MOSUNNY   81  56  42 N13       29.88S
MITCHELL       SUNNY     83  61  47 N10       29.87R
PIERRE         SUNNY     87  53  31 N14       29.89S
MOBRIDGE       SUNNY     83  55  38 N9        29.90S
RAPID CITY     SUNNY     86  53  32 NE6       29.98F
$$

  *****  SOME WEATHER IN NEARBY STATES *****

CITY           SKY/WX    TMP DP  RH WIND       PRES   REMARKS
GLASGOW MT     SUNNY     83  45  26 N7        29.98F
GREAT FALLS MT SUNNY     86  44  23 NE7       29.98F
CHEYENNE WY    MOSUNNY   87  40  19 SE12G17   30.12F
SCOTTSBLUFF NE MOSUNNY   91  51  25 E12       29.97R
OMAHA NE       MOSUNNY   91  76  61 N14       29.78S HX 103
DES MOINES IA  PTSUNNY   79  65  62 SW23G39   29.77R THUNDER
DAVENPORT IA   SUNNY     88  73  61 SW14G23   29.72F HX  95
CHICAGO IL     MOSUNNY   89  69  51 SW16G32   29.65F HX  93
EAU CLAIRE WI  MOSUNNY   80  60  50 NW14      29.68R
LA CROSSE WI   MOSUNNY   87  65  47 NW18G26   29.65R
$$

  *****  SOME NATIONAL WEATHER *****

CITY           SKY/WX    TMP DP  RH WIND       PRES   REMARKS
LA GUARDIA NY  MOSUNNY   84  60  44 S10       29.86F
RALEIGH NC     MOSUNNY   87  60  40 NE7       29.93F
ATLANTA GA     MOSUNNY   92  58  31 E5        29.89S HX  91
NEW ORLEANS LA MOSUNNY   93  62  35 SW8       29.85F HX  93
OKLAHOMA CITY  MOSUNNY   88  68  51 S14       29.91F HX  91
ALBUQUERQUE NM CLOUDY    81  57  43 SW8       30.11F
SALT LAKE CITY LGT RAIN  82  47  29 W30G41    29.95F
LOS ANGELES CA MOSUNNY   74  65  73 W15       29.86F
BOISE ID       MOSUNNY  101  37  11 W8        29.81F HX  95
SEATTLE WA     PTSUNNY   84  52  33 CALM      29.92F
$$

*** WEATHER ACROSS MANITOBA...SASKATCHEWAN AND ONTARIO ***
                ***ONTARIO***

CITY           SKY/WX    TMP DP  RH WIND       PRES   REMARKS
GERALDTON      LGT RAIN  61  54  77 NW9G21    29.56R
THUNDER BAY    PTSUNNY   73  45  35 NW12G25   29.58R
SIOUX LOOKOUT  CLOUDY    61  48  63 NW17G25   29.67R
TORONTO        CLOUDY    72  63  73 SW12      29.71F
BIG TROUT LK   LGT RAIN  52  48  87 NW10G18   29.54
PICKLE LAKE    LGT RAIN  54  52  94 W9G20     29.59R
DRYDEN         CLOUDY    61  48  63 NW13G24   29.70R
KENORA         PTSUNNY   66  45  45 NW13      29.74R
$$
                *** MANITOBA***

CITY           SKY/WX    TMP DP  RH WIND       PRES   REMARKS
BRANDON        SUNNY     73  46  38 NW22G31   29.88S
DAUPHIN        SUNNY     73  43  33 NW12G24   29.83S
ISLAND LAKE    CLOUDY    55  50  82 NW17G25   29.67R
PILOT MOUND      N/A     72  45  37 NW18G24     N/A
THE PAS        PTSUNNY   66  52  59 N14G22    29.86R
THOMPSON       LGT RAIN  55  48  76 N16G22    29.77R
WINNIPEG       MOSUNNY   72  45  37 NW20G29   29.79S
LYNN LAKE      CLOUDY    61  46  59 N13G21    29.85S
GILLAM         DRZL/FOG  52  50  93 N16G23    29.66R VSB 1
$$
                ***SASKATCHEWAN***

CITY           SKY/WX    TMP DP  RH WIND       PRES   REMARKS
ESTEVAN        MOSUNNY   77  48  36 N14       29.97S
KINDERSLEY     PTSUNNY   75  48  38 NE7       30.01S
LLOYDMINSTER   PTSUNNY   75  46  35 CALM      30.00F
PRINCE ALBERT  MOSUNNY   75  50  41 NW16G23   29.95S
REGINA         MOSUNNY   77  48  36 NW16G22   29.99F
YORKTON        MOSUNNY   73  48  40 NW17G23   29.92S



USA.gov is the U.S. government's official web portal to all federal, state and local government web resources and services.